Weather in Pokaty

Russia / Pskov Oblast     57°16′45″N   28°13′14″E
temp.,
°C
wind,
m/s
gust,
m/s
humid.,
%
clouds,
%
prec.,
mm/h
press.,
hPa
HPBL,
m
11 may, tue
tue1100:00+12sse51477100 0.0 1023366
03:00+9sse31188100 0.0 1024217
06:00+10sse4118446 0.0 1024257
09:00+14s5963100 0.0 1025445
12:00+18sse574944 0.0 1025987
15:00+21sse564210 0.0 10231335
18:00+20sse46515 0.0 1023848
21:00+14se37755 0.0 1022105
12 may, wed
wed1200:00+11se37765 0.0 1023119
03:00+9se37805 0.0 1023117
06:00+9se368716 0.0 1023132
09:00+16se36730 0.0 1023409
12:00+21se575910 0.0 10221374
15:00+21se475550 0.0 10211556
18:00+20se45520 0.0 10201402
21:00+14ese22705 0.0 101911
13 may, thu
thu1300:00+13nne346981 0.0 101647
03:00+13ne3983100 0.0 1014249
06:00+14e5109082 0.1 1013721
09:00+13se69734 0.1 1015803
12:00+16ese6116013 0.1 10131525
15:00+16ese7106130 0.2 10121413
18:00+16se595847 0.1 10111831
21:00+11ese3479100 0.1 101157
14 may, fri
fri1400:00+8se35885 0.0 101182
03:00+7se36946 0.0 1011129
06:00+7ese3994100 0.0 1011237
09:00+10ese41294100 1.6 1010618
12:00+11se51288100 0.3 1010743
15:00+13se4108867 0.4 1010671
18:00+17ese477096 0.1 1008921
21:00+13ese369141 0.9 1007128
15 may, sat
sat1500:00+11ese249618 0.5 100787
03:00+10sse119721 0.5 100610
06:00+10s229688 0.0 100636
09:00+15ssw348442 0.0 1006446
12:00+18ssw346566 0.0 10061140
15:00+19sw345790 0.1 10061480
18:00+18wsw4462100 0.1 10051035
21:00+13w248140 0.1 100648